カタログに戻る

NIMBUS 2 DEB

運用中SSO
NORAD 42435·DEBRIS·🇺🇸 United States

打ち上げ May 15, 1966 から Vandenberg Space Force Base

Loading…

次のパス (今後24時間)

TLE

最新Source: Space-Track

元期: Sep 13, 2026, 09:50 UTC

1 42435U 66040BN  26256.40974061  .00001232  00000-0  21910-2 0  9999
2 42435 100.2152  63.1529 0050469 321.1928  38.5581 13.44030849487451

AllMySatでNIMBUS 2 DEBをリアルタイム追跡

Download on the App Store